Weather History for SARI - September, 2013

Change the Weather History Date:

Monday, September 16, 2013

  Actual Average Record
Temperature  
Mean Temperature 56 °F -  
Max Temperature 57 °F 78 °F 97 °F (2012)
Min Temperature 55 °F 57 °F 42 °F (2001)
Degree Days  
Heating Degree Days 9    
Growing Degree Days 6 (Base 50)    
Moisture  
Dew Point 58 °F    
Average Humidity 100    
Maximum Humidity 100    
Minimum Humidity 99    
Precipitation  
Precipitation 0.79 in - - ()
Sea Level Pressure  
Sea Level Pressure 29.88 in    
Wind  
Wind Speed 9 mph ()    
Max Wind Speed 15 mph    
Max Gust Speed -    
Visibility 3.7 miles    
Events Rain , Thunderstorm    
Averages and records for this station are not official NWS values.
T = Trace of Precipitation, MM = Missing Value Source: Averaged Metar Reports

Daily Weather History Graph

Daily Weather History Graph

Search for Another Location

Airport or City:

Trip Planner

Search our weather history database for the weather conditions in past years. The results will help you decide how hot, cold, wet, or windy it might be!

Date:

Astronomy

Sep. 16, 2013 Rise Set
Actual Time 6:33 AM ART 6:31 PM ART
Civil Twilight 6:10 AM ART 6:54 PM ART
Nautical Twilight 5:44 AM ART 7:21 PM ART
Astronomical Twilight 5:17 AM ART 7:48 PM ART
Moon 3:51 PM ART (9/16) 4:09 AM ART (9/16)
Length of Visible Light 12h 43m
Length of Day
11h 57m
Waxing Gibbous, 90% of the Moon is Illuminated
Sep 16
Waxing Gibbous
Sep 19
Full
Sep 27
Last Quarter
Oct 4
New
Oct 11
First Quarter

Hourly Weather History & Observations

Time (ART) Temp. Dew Point Humidity Pressure Visibility Wind Dir Wind Speed Gust Speed Precip Events Conditions
12:00 AM 62.6 °F 62.6 °F 100% 29.89 in 3.7 mi South 5.8 mph - N/A Rain Light Rain
1:00 AM 60.8 °F 60.8 °F 100% 29.92 in 3.7 mi SSW 8.1 mph - N/A Rain Light Rain
2:00 AM 60.8 °F 60.8 °F 100% 29.89 in 4.3 mi SW 4.6 mph - N/A Rain Light Rain
3:00 AM 60 °F 60 °F 100% 29.83 in 4 mi SW 10.4 mph - - Rain Light Rain
3:00 AM 60.8 °F 60.8 °F 100% 29.86 in 4.3 mi SW 10.4 mph - N/A Rain Light Rain
4:00 AM 60.8 °F 60.8 °F 100% 29.89 in 4.3 mi South 9.2 mph - N/A Rain Light Rain
5:00 AM 59.0 °F 59.0 °F 100% 29.86 in 5.0 mi SW 11.5 mph - N/A Rain Light Rain
6:00 AM 59.0 °F 59.0 °F 100% 29.86 in 5.0 mi South 15.0 mph - N/A   Mostly Cloudy
7:00 AM 59.0 °F 59.0 °F 100% 29.86 in 3.7 mi South 13.8 mph - N/A Rain Light Rain
8:00 AM 57.2 °F 57.2 °F 100% 29.86 in 3.7 mi South 11.5 mph - N/A Rain Light Rain
8:30 AM 57.2 °F 57.2 °F 100% 29.86 in 3.1 mi SSW 15.0 mph - N/A Rain , Thunderstorm Light Thunderstorms and Rain
9:00 AM 57 °F 57 °F 99% 29.83 in 3 mi South 11.5 mph - - Rain , Thunderstorm Thunderstorms and Rain
9:00 AM 57.2 °F 57.2 °F 100% 29.86 in 3.1 mi South 11.5 mph - N/A Rain , Thunderstorm Light Thunderstorms and Rain
10:00 AM 57.2 °F 57.2 °F 100% 29.86 in 3.7 mi SW 13.8 mph - N/A Rain , Thunderstorm Light Thunderstorms and Rain
11:00 AM 55.4 °F 55.4 °F 100% 29.89 in 1.2 mi SW 15.0 mph - N/A Rain , Thunderstorm Light Thunderstorms and Rain
12:00 PM 55.4 °F 55.4 °F 100% 29.92 in 1.9 mi West 9.2 mph - N/A Rain Light Rain
1:00 PM 55.4 °F 55.4 °F 100% 29.86 in 3.7 mi West 6.9 mph - N/A Rain Light Rain
2:00 PM 57.2 °F 57.2 °F 100% 29.86 in 4.3 mi SW 13.8 mph - N/A   Overcast
3:00 PM 57 °F 57 °F 99% 29.83 in 4 mi SW 11.5 mph - - Rain Light Drizzle
3:00 PM 57.2 °F 57.2 °F 100% 29.86 in 4.3 mi SW 11.5 mph - N/A   Light Drizzle
4:00 PM 57.2 °F 57.2 °F 100% 29.83 in 4.3 mi South 9.2 mph - N/A   Light Drizzle
5:00 PM 57.2 °F 57.2 °F 100% 29.86 in 4.3 mi South 10.4 mph - N/A   Light Drizzle
6:00 PM 57.2 °F 57.2 °F 100% 29.86 in 4.3 mi South 6.9 mph - N/A   Light Drizzle
7:00 PM 57.2 °F 57.2 °F 100% 29.89 in 4.3 mi South 6.9 mph - N/A   Light Drizzle
8:00 PM 57.2 °F 57.2 °F 100% 29.92 in 3.1 mi SW 5.8 mph - N/A   Light Drizzle
9:00 PM 56 °F 56 °F 100% 29.89 in 3 mi South 6.9 mph - - Rain Light Drizzle
9:00 PM 57.2 °F 57.2 °F 100% 29.92 in 3.1 mi South 6.9 mph - N/A   Light Drizzle
10:00 PM 55.4 °F 55.4 °F 100% 29.92 in 3.1 mi South 13.8 mph - N/A   Light Drizzle
11:00 PM 55.4 °F 55.4 °F 100% 29.95 in 5.0 mi South 9.2 mph - N/A   Overcast